Location: Prague
(50.0833°N, 14.4667°E)
Time: 19:57:34
(UTC+02:00)

ISS - Pass Details

Date: 30 May 2024
Orbit: 410 x 421 km, 51.6° (Epoch: 12 June)

Event Time Altitude Azimuth Distance (km) Brightness Sun altitude
Rises 15:03:33 0° 235° (SW) 2,369 0.7 52.8°
Reaches altitude 10° 15:05:40 10° 231° (SW) 1,507 -0.1 52.5°
Maximum altitude 15:08:58 52° 154° (SSE) 536 -2.4 52.1°
Drops below altitude 10° 15:12:17 10° 77° (ENE) 1,512 -1.2 51.7°
Sets 15:14:25 0° 73° (ENE) 2,378 -0.3 51.4°
